Lid_Strength_Index
3 3 3 6 6 7 7 7 7 8 7 7 7 7 7 7 5 6 7 6 6 5 6 5 6 5 6 4 3 3 2 2 4 3 5 6 5 5 5 4 5 5 4
4 4 6 6 5 6 7 7 7 7 7 7 7 7 7 7 6 5 5 5 5 5 4 4 5 5 6 6 4 4 3 3 3 5 8 7 6 6 5 6 6 5 5
5 6 6 7 7 7 7 7 7 7 7 7 7 7 6 6 7 7 6 6 5 5 5 5 5 4 4 5 5 4 4 3 3 6 8 8 6 6 8 7 8 8 7
5 6 7 7 7 7 7 7 7 8 8 8 8 7 6 6 6 6 6 7 6 6 5 4 4 4 4 4 4 4 4 3 3 6 8 8 7 7 7 9 9 8 8
6 6 7 6 6 6 6 7 7 7 7 7 7 7 8 7 5 7 6 5 5 5 4 4 3 3 2 3 3 3 4 3 3 5 8 8 8 9 9 8 9 8 7
5 5 6 5 4 6 7 7 6 6 7 7 7 7 8 6 4 3 4 4 4 4 5 4 4 3 2 2 2 2 3 4 4 6 6 8 7 9 8 9 10 9 10
5 5 5 5 5 6 4 4 5 4 5 7 7 6 5 7 5 4 3 4 4 4 4 4 4 3 2 3 3 3 2 3 4 5 6 6 7 8 8 10 9 9 9
6 5 5 5 5 6 6 5 7 8 8 7 6 3 3 4 4 4 4 5 4 3 4 4 5 4 5 4 4 4 4 4 4 4 5 5 6 6 6 6 7 7 7
6 6 6 6 6 6 7 7 8 9 8 7 5 3 4 4 4 5 5 5 4 4 4 4 4 5 5 5 4 5 5 4 3 4 5 5 6 6 6 6 7 7 8
6 6 6 6 6 7 7 8 9 7 8 6 5 5 3 4 5 6 6 7 8 5 5 4 4 5 6 6 5 5 6 5 4 5 4 5 5 5 5 5 6 8 9
5 5 6 6 6 6 7 8 8 8 8 7 7 5 4 3 5 6 6 6 7 6 6 5 4 5 6 7 6 5 5 4 5 5 5 5 5 6 6 6 6 6 8
6 5 6 6 5 5 7 8 8 9 9 9 9 8 6 4 4 5 6 6 5 6 7 6 5 6 6 6 6 5 6 5 5 6 6 6 6 6 6 6 6 7 6
6 6 5 6 6 6 7 8 9 9 9 9 9 8 7 7 6 5 6 5 5 6 5 5 5 6 6 4 4 4 5 5 5 6 6 6 5 5 5 5 5 5 5
7 6 6 6 6 6 6 7 8 9 9 9 9 9 8 7 7 7 6 6 5 5 4 5 4 4 4 4 4 4 4 5 6 6 6 6 5 5 6 5 5 5 5
6 6 6 6 6 6 6 6 6 7 7 8 8 8 8 7 6 6 6 6 5 6 5 6 5 6 6 6 6 5 4 5 5 5 5 5 4 4 5 5 5 6 6
6 6 6 6 6 6 6 6 6 6 7 7 7 7 6 5 6 6 5 5 6 6 5 6 6 6 6 5 5 4 4 4 5 5 4 4 4 4 5 5 6 7 7
5 5 5 5 6 6 6 6 7 6 7 7 8 8 7 5 6 6 6 6 6 6 5 5 5 4 4 4 4 4 4 4 4 4 4 5 5 5 6 6 6 6 7
4 6 5 5 5 5 5 5 5 6 7 6 7 8 8 7 7 6 7 7 5 6 5 4 4 4 5 5 5 5 4 5 5 5 5 4 4 4 5 5 5 6 6
4 4 5 5 5 5 4 5 5 5 5 5 5 7 8 8 8 8 8 4 4 4 4 5 4 3 3 4 3 4 5 5 5 5 5 5 5 5 5 5 6 8 8
3 5 6 5 5 4 4 4 4 4 5 5 5 5 6 9 8 7 7 5 5 4 3 4 4 3 3 3 4 5 5 5 6 6 6 6 6 6 6 7 7 8 9
3 3 7 4 4 5 4 4 3 4 4 4 4 4 8 6 6 5 5 5 4 4 3 3 3 3 3 3 4 5 5 5 6 6 6 6 7 8 8 8 9 8 9
3 3 4 5 4 4 4 4 4 4 4 4 3 4 10 7 5 5 4 4 4 4 3 3 3 3 3 3 3 4 5 6 6 6 7 8 8 9 9 9 8 9 9
10 9 9 9 7 9 7 7 6 6 6 5 5 5 5 7 6 5 4 4 3 3 3 3 3 4 4 5 5 4 4 5 5 7 8 9 9 10 10 9 8 9 9
12 12 12 12 12 12 12 12 11 11 10 9 8 7 6 5 6 5 4 4 4 4 3 4 4 4 4 5 5 6 6 6 7 7 7 8 9 10 8 8 8 8 9
13 13 14 14 14 14 13 13 13 13 12 12 12 11 11 9 6 5 6 5 4 4 5 5 5 4 5 5 8 9 10 10 9 10 8 8 8 8 9 9 9 9 10
13 13 13 13 13 13 13 13 14 13 13 13 13 12 12 12 11 10 7 6 6 6 6 7 7 8 10 10 11 12 11 11 11 11 9 9 9 10 10 10 11 12 12